QPF
0.00 0.00 0.00 0.00 0.00 0.00 0.00 0.00 0.00 0.00 0.00 0.00 0.00 0.00 0.00 0.00 0.00 0.00 0.00 0.00 0.00 0.00 0.00 0.00 0.00 0.00 0.00 0.00 0.00 0.08 0.10 0.04 0.02 0.04 0.04 0.00 0.00 0.00 0.00 0.00 0.00 0.00 0.00 0.00 0.00
0.00 0.00 0.00 0.00 0.00 0.00 0.00 0.00 0.00 0.00 0.00 0.00 0.00 0.00 0.00 0.00 0.00 0.00 0.00 0.00 0.00 0.00 0.00 0.00 0.00 0.00 0.00 0.00 0.00 0.02 0.07 0.04 0.01 0.05 0.02 0.00 0.00 0.00 0.00 0.00 0.00 0.00 0.00 0.00 0.00
0.00 0.00 0.00 0.00 0.00 0.00 0.00 0.00 0.00 0.00 0.00 0.00 0.00 0.00 0.00 0.00 0.00 0.00 0.00 0.00 0.00 0.00 0.00 0.00 0.00 0.00 0.00 0.00 0.00 0.00 0.06 0.04 0.02 0.05 0.04 0.03 0.00 0.00 0.00 0.00 0.00 0.00 0.00 0.00 0.00
0.00 0.00 0.00 0.00 0.00 0.00 0.00 0.00 0.00 0.00 0.00 0.00 0.00 0.00 0.00 0.00 0.00 0.00 0.00 0.00 0.00 0.00 0.00 0.00 0.00 0.00 0.01 0.00 0.00 0.00 0.02 0.07 0.03 0.07 0.04 0.03 0.00 0.00 0.00 0.00 0.00 0.00 0.00 0.00 0.00
0.00 0.00 0.00 0.00 0.00 0.00 0.00 0.00 0.00 0.00 0.00 0.00 0.00 0.00 0.00 0.00 0.00 0.00 0.00 0.00 0.00 0.00 0.00 0.00 0.00 0.00 0.00 0.00 0.00 0.00 0.04 0.05 0.18 0.05 0.07 0.05 0.00 0.00 0.00 0.00 0.00 0.00 0.00 0.00 0.00
0.00 0.00 0.00 0.00 0.00 0.00 0.00 0.00 0.00 0.00 0.00 0.00 0.00 0.00 0.00 0.00 0.00 0.00 0.00 0.00 0.00 0.00 0.00 0.00 0.00 0.00 0.00 0.00 0.00 0.01 0.03 0.04 0.16 0.03 0.09 0.05 0.01 0.00 0.00 0.00 0.00 0.00 0.00 0.00 0.00
0.00 0.00 0.00 0.00 0.00 0.00 0.00 0.00 0.00 0.00 0.00 0.00 0.00 0.00 0.00 0.00 0.00 0.00 0.00 0.00 0.00 0.00 0.00 0.00 0.00 0.00 0.00 0.00 0.00 0.00 0.05 0.09 0.09 0.07 0.07 0.06 0.01 0.02 0.02 0.00 0.00 0.00 0.00 0.00 0.00
0.00 0.00 0.00 0.00 0.00 0.00 0.00 0.00 0.00 0.00 0.00 0.00 0.00 0.00 0.00 0.00 0.00 0.00 0.00 0.00 0.00 0.00 0.00 0.00 0.00 0.00 0.00 0.00 0.00 0.00 0.04 0.16 0.17 0.16 0.10 0.09 0.07 0.14 0.05 0.00 0.00 0.00 0.00 0.00 0.00
0.00 0.00 0.00 0.00 0.00 0.00 0.00 0.00 0.00 0.00 0.00 0.00 0.00 0.00 0.00 0.00 0.00 0.00 0.00 0.00 0.00 0.00 0.00 0.00 0.00 0.00 0.00 0.00 0.00 0.00 0.02 0.13 0.17 0.23 0.31 0.24 0.50 0.17 0.07 0.04 0.00 0.00 0.00 0.00 0.00
0.00 0.00 0.00 0.00 0.00 0.00 0.00 0.00 0.00 0.00 0.00 0.00 0.00 0.00 0.00 0.00 0.00 0.00 0.00 0.00 0.00 0.00 0.00 0.00 0.00 0.00 0.00 0.00 0.01 0.01 0.05 0.12 0.07 0.12 0.23 0.22 0.44 0.17 0.04 0.04 0.00 0.00 0.00 0.00 0.00
0.00 0.00 0.00 0.00 0.00 0.00 0.00 0.00 0.00 0.00 0.00 0.00 0.00 0.00 0.00 0.00 0.00 0.00 0.00 0.00 0.00 0.00 0.00 0.00 0.00 0.00 0.00 0.00 0.00 0.01 0.00 0.15 0.02 0.06 0.38 0.23 0.13 0.03 0.11 0.02 0.04 0.00 0.00 0.00 0.00
0.00 0.00 0.00 0.00 0.00 0.00 0.00 0.00 0.00 0.00 0.00 0.00 0.00 0.00 0.00 0.00 0.00 0.00 0.00 0.00 0.00 0.00 0.00 0.00 0.00 0.00 0.00 0.00 0.00 0.00 0.00 0.13 0.05 0.08 0.12 0.20 0.11 0.09 0.32 0.02 0.02 0.02 0.00 0.00 0.00
0.00 0.00 0.00 0.00 0.00 0.00 0.00 0.00 0.00 0.00 0.00 0.00 0.00 0.00 0.00 0.00 0.00 0.00 0.00 0.00 0.00 0.00 0.00 0.00 0.00 0.00 0.00 0.00 0.00 0.00 0.00 0.04 0.09 0.04 0.05 0.10 0.12 0.21 0.38 0.09 0.07 0.04 0.00 0.00 0.00
0.00 0.00 0.00 0.00 0.00 0.00 0.00 0.00 0.00 0.00 0.00 0.00 0.00 0.00 0.00 0.00 0.00 0.00 0.00 0.00 0.00 0.00 0.00 0.00 0.00 0.00 0.00 0.00 0.00 0.00 0.00 0.00 0.04 0.04 0.03 0.01 0.15 0.10 0.24 0.10 0.04 0.01 0.00 0.00 0.00
0.00 0.00 0.00 0.00 0.00 0.00 0.00 0.00 0.00 0.00 0.00 0.00 0.00 0.00 0.00 0.00 0.00 0.00 0.00 0.00 0.00 0.00 0.00 0.00 0.00 0.00 0.00 0.00 0.00 0.00 0.00 0.00 0.00 0.01 0.01 0.00 0.07 0.08 0.05 0.07 0.03 0.01 0.00 0.00 0.00
0.00 0.00 0.00 0.00 0.00 0.00 0.00 0.00 0.00 0.00 0.00 0.00 0.00 0.00 0.00 0.00 0.00 0.00 0.00 0.00 0.00 0.00 0.00 0.00 0.00 0.00 0.00 0.00 0.00 0.00 0.00 0.01 0.03 0.02 0.00 0.00 0.03 0.04 0.00 0.00 0.00 0.02 0.00 0.00 0.00
0.00 0.00 0.00 0.00 0.00 0.00 0.00 0.00 0.00 0.00 0.00 0.00 0.00 0.00 0.00 0.00 0.00 0.00 0.00 0.00 0.00 0.00 0.00 0.00 0.00 0.00 0.00 0.00 0.00 0.00 0.00 0.01 0.01 0.00 0.00 0.00 0.01 0.00 0.00 0.00 0.00 0.00 0.00 0.00 0.00
0.00 0.00 0.00 0.00 0.00 0.00 0.00 0.00 0.00 0.00 0.00 0.00 0.00 0.00 0.00 0.00 0.00 0.00 0.00 0.00 0.00 0.00 0.00 0.00 0.00 0.00 0.00 0.00 0.00 0.00 0.00 0.00 0.01 0.00 0.00 0.00 0.00 0.00 0.00 0.00 0.00 0.00 0.00 0.00 0.00
0.00 0.00 0.00 0.00 0.00 0.00 0.00 0.00 0.00 0.00 0.00 0.00 0.00 0.00 0.00 0.00 0.00 0.00 0.00 0.00 0.00 0.00 0.00 0.00 0.00 0.00 0.00 0.00 0.00 0.00 0.00 0.00 0.00 0.00 0.01 0.01 0.00 0.00 0.00 0.00 0.00 0.00 0.00 0.00 0.00
0.00 0.00 0.00 0.00 0.00 0.00 0.00 0.00 0.00 0.00 0.00 0.00 0.00 0.00 0.00 0.00 0.00 0.00 0.00 0.00 0.00 0.00 0.00 0.00 0.00 0.00 0.00 0.00 0.00 0.00 0.00 0.00 0.00 0.00 0.00 0.01 0.00 0.00 0.00 0.00 0.00 0.00 0.00 0.00 0.00
0.00 0.00 0.00 0.00 0.00 0.00 0.00 0.00 0.00 0.00 0.00 0.00 0.00 0.00 0.00 0.00 0.00 0.00 0.00 0.00 0.00 0.00 0.00 0.00 0.00 0.00 0.00 0.00 0.00 0.00 0.00 0.00 0.00 0.00 0.00 0.01 0.00 0.00 0.00 0.00 0.00 0.00 0.00 0.00 0.01
0.00 0.00 0.00 0.00 0.00 0.00 0.00 0.00 0.00 0.00 0.00 0.00 0.00 0.00 0.00 0.00 0.00 0.00 0.00 0.00 0.00 0.00 0.00 0.00 0.00 0.00 0.00 0.00 0.00 0.00 0.00 0.00 0.00 0.00 0.00 0.00 0.02 0.00 0.00 0.00 0.00 0.00 0.00 0.00 0.00
0.00 0.00 0.00 0.00 0.00 0.00 0.00 0.00 0.00 0.00 0.00 0.00 0.00 0.00 0.00 0.00 0.00 0.00 0.00 0.00 0.00 0.00 0.00 0.00 0.00 0.00 0.00 0.00 0.00 0.00 0.00 0.00 0.00 0.00 0.00 0.00 0.00 0.00 0.00 0.00 0.00 0.00 0.00 0.00 0.00
0.00 0.00 0.00 0.00 0.00 0.00 0.00 0.00 0.00 0.00 0.00 0.00 0.00 0.00 0.00 0.00 0.00 0.00 0.00 0.00 0.00 0.00 0.00 0.00 0.00 0.00 0.00 0.00 0.00 0.00 0.00 0.00 0.00 0.00 0.00 0.00 0.00 0.00 0.00 0.00 0.00 0.00 0.00 0.00 0.00
0.00 0.00 0.00 0.00 0.00 0.00 0.00 0.00 0.00 0.00 0.00 0.00 0.00 0.00 0.00 0.00 0.00 0.00 0.00 0.00 0.00 0.00 0.00 0.00 0.00 0.00 0.00 0.00 0.00 0.00 0.00 0.00 0.00 0.00 0.00 0.00 0.00 0.00 0.00 0.00 0.00 0.00 0.00 0.00 0.01
0.00 0.00 0.00 0.00 0.00 0.00 0.00 0.00 0.00 0.00 0.00 0.00 0.00 0.00 0.00 0.00 0.00 0.00 0.00 0.00 0.00 0.00 0.00 0.00 0.00 0.00 0.00 0.00 0.00 0.00 0.00 0.00 0.00 0.00 0.00 0.00 0.00 0.00 0.00 0.00 0.00 0.00 0.00 0.01 0.09
0.00 0.00 0.00 0.00 0.00 0.00 0.00 0.00 0.00 0.00 0.00 0.00 0.00 0.00 0.00 0.00 0.00 0.00 0.00 0.00 0.00 0.00 0.00 0.00 0.00 0.00 0.00 0.00 0.00 0.00 0.00 0.00 0.00 0.00 0.00 0.00 0.00 0.00 0.00 0.00 0.00 0.00 0.02 0.03 0.02
MSLP
1018.03 1017.77 1017.51 1017.32 1017.19 1017.05 1016.88 1016.73 1016.63 1016.42 1016.24 1016.20 1016.01 1015.88 1015.74 1015.48 1014.80 1014.02 1011.92 1010.69 1010.75 1011.25 1011.35 1010.71 1010.33 1009.94 1009.97 1009.52 1010.22 1010.25 1010.66 1010.19 1010.67 1011.13 1011.01 1010.34 1010.30 1010.64 1010.70 1010.87 1010.77 1011.23 1011.47 1013.34 1014.42
1017.87 1017.60 1017.37 1017.13 1016.95 1016.83 1016.73 1016.63 1016.56 1016.47 1016.31 1016.14 1015.95 1015.73 1015.50 1015.24 1013.91 1011.98 1010.23 1010.75 1011.10 1011.09 1010.62 1010.04 1009.61 1009.61 1009.16 1009.00 1009.24 1009.36 1009.53 1009.83 1011.03 1011.65 1011.36 1010.79 1010.63 1010.62 1010.75 1010.81 1011.15 1011.52 1012.64 1013.84 1014.61
1017.78 1017.53 1017.30 1017.11 1016.85 1016.61 1016.47 1016.40 1016.33 1016.24 1016.16 1016.11 1015.95 1015.73 1015.32 1014.73 1012.65 1009.33 1010.11 1010.54 1010.94 1010.79 1009.89 1009.52 1009.26 1009.08 1008.40 1008.90 1008.59 1009.07 1009.51 1010.37 1011.81 1012.06 1011.72 1011.06 1010.99 1010.91 1010.77 1010.87 1011.32 1011.81 1012.86 1013.96 1014.61
1017.68 1017.44 1017.21 1016.94 1016.67 1016.48 1016.27 1016.17 1016.06 1015.91 1015.86 1015.90 1015.81 1015.69 1015.18 1013.80 1010.50 1009.43 1009.79 1009.94 1010.61 1010.17 1009.63 1009.37 1009.08 1008.50 1008.01 1008.12 1008.32 1008.73 1009.82 1010.42 1011.96 1012.65 1012.38 1011.77 1011.46 1011.57 1011.03 1010.90 1011.51 1012.26 1013.01 1013.72 1014.36
1017.53 1017.27 1017.03 1016.84 1016.64 1016.42 1016.21 1016.09 1015.91 1015.84 1015.69 1015.61 1015.57 1015.45 1014.79 1012.19 1009.40 1009.41 1010.16 1010.20 1010.29 1009.96 1009.25 1008.90 1008.66 1007.98 1007.52 1007.97 1008.18 1008.77 1010.11 1011.17 1012.34 1013.13 1013.00 1013.15 1012.67 1012.41 1011.88 1011.73 1011.87 1012.73 1013.34 1013.75 1014.08
1017.35 1017.07 1016.85 1016.70 1016.53 1016.34 1016.17 1015.97 1015.79 1015.69 1015.54 1015.39 1015.31 1015.25 1013.60 1010.53 1009.20 1009.22 1009.52 1009.73 1009.38 1009.35 1008.85 1008.71 1008.33 1007.80 1007.25 1007.70 1007.95 1009.05 1009.95 1010.99 1012.41 1012.92 1013.24 1013.28 1013.54 1012.83 1012.85 1012.43 1012.45 1012.97 1013.23 1013.55 1013.98
1017.29 1016.99 1016.75 1016.56 1016.35 1016.19 1015.96 1015.86 1015.65 1015.45 1015.25 1015.24 1015.25 1014.49 1012.21 1009.43 1009.59 1009.05 1009.22 1009.23 1009.16 1008.71 1008.42 1008.61 1008.48 1008.03 1007.21 1007.42 1007.98 1009.09 1009.55 1010.87 1011.98 1012.46 1012.95 1013.85 1013.97 1013.79 1013.26 1012.80 1012.76 1012.89 1013.23 1013.54 1014.00
1017.20 1016.91 1016.64 1016.40 1016.23 1016.11 1015.92 1015.83 1015.55 1015.33 1015.17 1015.05 1014.99 1013.79 1010.28 1009.57 1009.68 1009.48 1009.32 1009.34 1009.38 1008.99 1008.57 1008.89 1008.69 1008.07 1007.36 1007.77 1007.65 1008.38 1009.32 1010.41 1012.25 1012.69 1012.87 1013.26 1014.15 1014.41 1013.91 1013.06 1012.88 1012.88 1013.17 1013.64 1014.06
1017.16 1016.87 1016.60 1016.32 1016.07 1015.87 1015.70 1015.46 1015.27 1015.21 1015.01 1014.83 1014.08 1012.70 1009.13 1009.98 1009.23 1009.21 1009.02 1008.94 1009.17 1009.18 1009.17 1009.21 1008.70 1007.58 1007.30 1006.92 1006.79 1007.30 1008.33 1009.95 1011.97 1012.89 1013.28 1014.06 1014.32 1014.87 1014.47 1013.29 1012.69 1012.81 1013.09 1013.45 1014.05
1017.13 1016.81 1016.51 1016.19 1015.91 1015.73 1015.48 1015.10 1014.95 1014.83 1014.69 1014.07 1013.07 1011.80 1009.19 1008.37 1008.68 1009.07 1009.07 1008.96 1008.89 1008.88 1008.79 1008.78 1008.14 1007.16 1006.49 1005.77 1005.60 1005.81 1007.65 1009.46 1010.89 1012.61 1013.17 1013.94 1014.00 1014.62 1014.79 1013.64 1012.83 1012.62 1012.92 1013.19 1013.73
1017.01 1016.73 1016.36 1016.03 1015.75 1015.53 1014.90 1014.41 1014.02 1013.31 1012.29 1010.65 1009.79 1009.02 1008.33 1008.65 1008.62 1008.67 1009.01 1008.85 1008.70 1008.61 1007.59 1007.91 1007.19 1006.00 1005.32 1005.26 1005.18 1005.18 1005.97 1008.63 1010.54 1011.79 1012.71 1012.89 1013.75 1014.49 1014.88 1014.08 1012.76 1012.59 1012.58 1012.85 1013.29
1016.80 1016.52 1016.21 1015.87 1015.59 1015.40 1014.74 1012.22 1011.17 1011.21 1009.86 1009.42 1009.37 1009.04 1008.64 1008.30 1008.01 1008.41 1008.71 1008.16 1008.19 1007.41 1007.17 1007.64 1006.27 1005.69 1005.47 1005.85 1005.75 1005.36 1005.93 1008.17 1010.44 1011.57 1012.35 1013.30 1013.73 1014.69 1014.91 1014.38 1012.87 1012.49 1012.34 1012.50 1012.97
1016.75 1016.37 1016.09 1015.75 1015.48 1014.97 1012.85 1011.43 1011.04 1011.00 1009.45 1008.57 1008.35 1007.87 1007.67 1008.06 1007.01 1007.67 1008.22 1007.61 1007.38 1006.86 1006.84 1005.84 1005.48 1005.85 1006.47 1006.03 1005.66 1005.21 1005.39 1007.06 1008.73 1011.36 1012.39 1013.21 1013.79 1014.61 1015.32 1014.85 1013.47 1012.73 1012.40 1012.16 1012.67
1016.53 1016.25 1015.98 1015.71 1015.63 1012.75 1011.49 1011.15 1011.13 1011.10 1008.63 1008.02 1007.31 1007.41 1007.55 1006.96 1006.75 1007.35 1007.60 1007.27 1007.10 1006.60 1006.43 1005.68 1005.80 1006.13 1006.09 1005.95 1005.89 1005.47 1006.53 1006.97 1008.32 1009.53 1010.86 1012.39 1012.87 1013.84 1014.61 1014.35 1013.99 1013.06 1012.32 1011.73 1012.44
1016.18 1015.97 1015.75 1015.67 1013.75 1011.81 1011.21 1011.00 1010.90 1010.64 1007.84 1007.92 1006.92 1007.21 1006.89 1006.48 1006.35 1007.19 1007.29 1007.09 1006.48 1006.20 1006.49 1005.42 1005.77 1005.96 1005.70 1005.83 1006.81 1006.49 1007.28 1007.43 1007.79 1008.44 1009.16 1010.51 1011.35 1012.66 1013.38 1013.83 1013.28 1013.09 1012.25 1011.53 1011.76
1015.65 1015.51 1015.37 1014.42 1013.35 1011.45 1011.22 1010.93 1010.68 1009.03 1007.88 1007.41 1006.96 1006.60 1006.41 1006.07 1005.99 1006.83 1007.19 1007.11 1006.54 1006.29 1006.33 1005.61 1005.91 1005.77 1005.41 1006.05 1007.21 1007.63 1007.73 1007.79 1007.82 1008.01 1007.61 1008.29 1009.45 1010.73 1010.73 1010.61 1011.45 1012.16 1011.76 1011.35 1011.26
1015.06 1014.85 1014.95 1013.09 1011.14 1011.35 1011.07 1010.21 1008.42 1007.34 1008.51 1007.82 1007.00 1006.48 1005.75 1005.79 1006.11 1006.47 1006.63 1006.43 1005.75 1005.90 1005.78 1005.97 1005.94 1006.01 1005.89 1005.93 1007.18 1007.64 1007.03 1007.21 1007.67 1007.30 1006.49 1007.21 1007.91 1007.17 1008.27 1009.17 1009.10 1009.86 1011.02 1010.94 1010.98
1014.35 1013.96 1013.70 1012.41 1011.77 1011.40 1010.44 1008.72 1007.84 1008.50 1007.99 1008.09 1007.49 1006.80 1005.87 1006.35 1006.46 1006.33 1006.20 1005.87 1006.37 1005.70 1004.80 1005.19 1005.49 1005.72 1005.99 1005.43 1005.75 1006.63 1006.78 1005.63 1005.72 1005.51 1005.38 1007.39 1006.39 1006.53 1007.22 1008.01 1008.42 1008.73 1009.97 1010.83 1010.63
1013.66 1012.49 1011.92 1011.46 1011.56 1011.33 1009.20 1007.77 1008.41 1008.51 1008.59 1007.93 1007.31 1006.46 1006.39 1006.71 1006.63 1006.45 1006.32 1005.84 1006.01 1006.16 1005.32 1004.98 1004.76 1005.11 1005.29 1005.61 1005.42 1005.52 1005.60 1005.37 1004.71 1004.29 1004.51 1005.94 1006.29 1006.78 1007.60 1007.73 1008.14 1008.23 1009.09 1010.01 1011.13
1012.35 1010.83 1010.85 1011.38 1011.22 1010.13 1008.12 1008.57 1008.89 1009.26 1008.86 1008.19 1007.05 1007.18 1006.29 1006.55 1006.66 1006.46 1006.48 1006.75 1006.67 1006.90 1006.55 1005.68 1004.99 1005.10 1005.15 1005.50 1005.31 1004.63 1005.10 1004.71 1004.55 1003.23 1003.30 1004.53 1005.12 1005.11 1006.60 1007.15 1007.59 1007.84 1008.28 1009.15 1010.59
1011.88 1009.67 1010.70 1010.77 1010.44 1008.42 1007.91 1008.95 1009.17 1009.29 1009.22 1008.29 1007.76 1007.46 1007.36 1007.01 1006.85 1006.36 1006.52 1007.27 1007.38 1007.21 1007.34 1006.17 1005.55 1004.84 1005.01 1004.68 1004.14 1004.95 1004.49 1003.91 1003.57 1003.41 1002.62 1003.25 1004.11 1004.98 1006.19 1006.94 1007.13 1007.59 1008.01 1008.95 1010.14
1011.09 1009.09 1010.41 1010.23 1008.64 1008.57 1008.26 1009.29 1010.16 1008.99 1008.87 1008.59 1008.36 1008.00 1007.89 1007.82 1007.28 1007.11 1006.85 1007.07 1008.11 1007.55 1007.04 1006.77 1005.69 1004.31 1003.96 1003.91 1004.00 1003.57 1003.93 1003.74 1003.27 1003.17 1003.45 1003.43 1004.85 1006.19 1006.64 1007.20 1007.75 1008.02 1008.37 1008.83 1009.88
1010.63 1009.78 1010.00 1009.67 1008.00 1008.15 1009.07 1009.13 1009.31 1008.74 1008.76 1008.61 1008.35 1008.54 1008.51 1008.19 1007.94 1007.80 1007.93 1008.57 1008.50 1007.99 1007.41 1007.22 1006.05 1004.96 1004.11 1004.55 1004.72 1004.03 1003.63 1003.37 1003.07 1002.93 1002.54 1003.27 1004.10 1006.22 1007.13 1008.14 1008.86 1009.57 1009.69 1010.16 1010.71
1011.12 1009.23 1009.41 1009.13 1009.09 1008.50 1008.71 1008.93 1009.08 1009.66 1009.40 1009.33 1009.10 1008.83 1008.61 1008.43 1008.56 1008.32 1008.13 1008.64 1008.89 1008.50 1008.89 1008.44 1006.24 1005.29 1004.14 1003.87 1003.39 1003.71 1003.83 1003.95 1003.29 1002.67 1002.55 1002.53 1003.61 1005.61 1007.23 1008.30 1009.66 1010.41 1010.98 1011.73 1012.14
1011.25 1009.61 1009.79 1008.63 1008.83 1008.91 1008.98 1009.36 1009.31 1009.33 1009.79 1009.69 1009.43 1009.18 1008.97 1008.51 1008.52 1008.62 1008.58 1008.41 1008.77 1009.15 1008.77 1008.01 1006.74 1006.01 1005.29 1005.38 1004.80 1004.25 1003.95 1003.93 1003.57 1003.23 1002.53 1002.30 1003.00 1004.07 1006.50 1008.47 1009.97 1011.04 1012.11 1012.69 1013.28
1011.41 1010.14 1010.27 1009.63 1009.59 1009.03 1009.53 1009.43 1009.61 1009.97 1010.25 1009.74 1009.66 1009.79 1009.55 1009.13 1009.04 1009.00 1008.93 1008.78 1008.48 1008.76 1008.43 1008.09 1007.19 1006.93 1006.00 1005.87 1005.51 1005.07 1004.85 1004.27 1003.82 1003.37 1003.58 1003.38 1003.55 1005.01 1006.92 1009.18 1010.90 1011.93 1012.76 1013.47 1014.13
1012.51 1011.77 1010.69 1010.11 1009.31 1008.83 1009.27 1009.51 1010.07 1010.59 1010.95 1010.85 1010.65 1010.11 1009.82 1010.25 1010.20 1010.06 1009.79 1009.68 1009.60 1009.15 1008.53 1008.23 1007.43 1007.30 1006.02 1006.48 1006.25 1005.88 1005.68 1005.21 1004.87 1005.13 1004.41 1004.15 1005.12 1006.13 1008.49 1010.09 1011.37 1012.41 1013.23 1014.12 1014.70
Thickness
5723 5722 5721 5719 5718 5717 5716 5714 5714 5716 5718 5720 5724 5727 5729 5732 5740 5749 5760 5778 5780 5779 5780 5784 5785 5789 5791 5788 5787 5790 5757 5762 5759 5749 5757 5786 5778 5787 5793 5783 5790 5792 5791 5779 5778
5722 5720 5718 5717 5715 5714 5713 5712 5711 5711 5712 5713 5717 5722 5727 5730 5741 5753 5777 5776 5775 5777 5779 5777 5774 5783 5782 5786 5787 5780 5768 5769 5766 5759 5762 5779 5779 5781 5780 5781 5780 5784 5787 5780 5777
5718 5716 5714 5712 5712 5711 5710 5710 5709 5709 5708 5708 5711 5714 5721 5729 5741 5768 5773 5773 5773 5776 5784 5786 5785 5784 5781 5783 5787 5782 5764 5772 5757 5758 5770 5779 5778 5787 5780 5773 5780 5773 5776 5777 5774
5715 5712 5710 5709 5708 5707 5707 5706 5705 5705 5705 5705 5706 5708 5714 5729 5743 5769 5771 5774 5772 5777 5779 5778 5777 5774 5776 5773 5789 5774 5777 5778 5762 5757 5764 5770 5782 5774 5784 5785 5791 5786 5779 5779 5773
5710 5708 5706 5704 5702 5701 5701 5700 5700 5700 5701 5701 5702 5704 5713 5728 5748 5765 5763 5767 5769 5774 5772 5771 5770 5775 5772 5778 5783 5776 5769 5767 5754 5752 5759 5758 5766 5766 5773 5786 5791 5786 5779 5776 5777
5706 5704 5701 5698 5696 5694 5693 5693 5693 5693 5694 5695 5697 5699 5713 5723 5754 5760 5762 5765 5769 5769 5771 5773 5772 5783 5782 5779 5779 5778 5774 5765 5751 5751 5754 5755 5755 5766 5769 5783 5781 5780 5779 5779 5776
5701 5698 5695 5692 5689 5687 5686 5684 5684 5686 5687 5688 5689 5696 5711 5732 5744 5755 5758 5761 5767 5771 5766 5774 5779 5775 5786 5776 5789 5775 5768 5764 5758 5763 5759 5752 5745 5746 5767 5778 5774 5777 5779 5780 5779
5695 5692 5688 5685 5682 5679 5677 5675 5676 5677 5678 5681 5683 5693 5713 5735 5737 5742 5751 5752 5760 5768 5772 5774 5778 5776 5779 5784 5782 5770 5770 5750 5749 5757 5762 5762 5737 5745 5761 5771 5770 5775 5778 5776 5777
5688 5685 5681 5678 5675 5673 5670 5669 5669 5668 5670 5673 5681 5689 5711 5725 5727 5736 5746 5742 5749 5757 5763 5768 5770 5769 5777 5768 5767 5774 5750 5749 5737 5749 5748 5742 5735 5739 5752 5768 5770 5774 5775 5777 5775
5682 5678 5674 5671 5668 5666 5663 5663 5662 5663 5664 5669 5678 5681 5707 5713 5724 5728 5739 5743 5741 5746 5747 5750 5756 5757 5769 5772 5748 5769 5756 5749 5741 5744 5745 5738 5736 5739 5742 5760 5768 5775 5775 5776 5775
5676 5671 5667 5665 5662 5660 5661 5667 5670 5668 5673 5686 5694 5696 5706 5713 5724 5721 5729 5731 5737 5736 5735 5746 5742 5747 5770 5778 5782 5787 5784 5745 5749 5754 5741 5748 5739 5739 5740 5752 5767 5771 5775 5777 5777
5671 5666 5662 5659 5658 5657 5660 5675 5680 5677 5674 5688 5686 5689 5702 5711 5703 5713 5727 5720 5722 5724 5741 5731 5736 5764 5772 5770 5771 5780 5774 5752 5746 5750 5740 5735 5739 5734 5736 5746 5769 5771 5775 5779 5780
5664 5661 5657 5656 5656 5658 5671 5676 5679 5678 5673 5681 5687 5690 5698 5704 5706 5706 5716 5722 5719 5725 5732 5739 5752 5759 5752 5757 5762 5775 5776 5762 5752 5736 5734 5730 5729 5729 5727 5736 5762 5771 5777 5784 5781
5660 5656 5654 5653 5655 5674 5675 5678 5675 5674 5672 5672 5683 5687 5695 5707 5699 5718 5721 5719 5717 5720 5732 5741 5752 5746 5747 5749 5762 5756 5770 5770 5756 5747 5723 5737 5715 5729 5725 5726 5745 5759 5773 5784 5781
5658 5654 5652 5650 5666 5673 5676 5676 5676 5672 5652 5675 5683 5701 5700 5697 5704 5702 5723 5717 5711 5722 5727 5733 5737 5737 5740 5749 5752 5747 5759 5759 5762 5754 5752 5742 5730 5726 5732 5724 5736 5748 5768 5784 5787
5659 5656 5653 5658 5663 5675 5675 5675 5672 5662 5638 5668 5683 5682 5686 5699 5704 5705 5705 5720 5726 5719 5726 5730 5751 5748 5752 5754 5745 5752 5748 5750 5755 5753 5741 5758 5746 5720 5743 5759 5758 5749 5769 5781 5788
5662 5660 5656 5665 5677 5674 5674 5673 5665 5658 5668 5660 5670 5684 5692 5690 5694 5698 5696 5701 5706 5696 5700 5719 5726 5741 5751 5741 5741 5737 5739 5717 5707 5724 5736 5766 5752 5770 5774 5776 5785 5776 5769 5780 5789
5667 5666 5666 5670 5673 5673 5674 5672 5646 5654 5660 5671 5673 5681 5687 5687 5687 5694 5696 5696 5708 5714 5715 5705 5699 5726 5741 5744 5736 5733 5733 5734 5707 5722 5751 5747 5750 5772 5787 5789 5793 5796 5786 5779 5787
5671 5676 5676 5678 5674 5674 5677 5659 5650 5657 5664 5666 5676 5677 5677 5682 5685 5688 5691 5698 5707 5713 5704 5706 5710 5737 5742 5747 5749 5738 5729 5763 5752 5770 5754 5744 5764 5777 5776 5782 5787 5791 5788 5782 5778
5682 5686 5680 5677 5678 5681 5679 5649 5657 5663 5667 5671 5666 5673 5674 5678 5678 5683 5684 5693 5694 5705 5716 5713 5701 5727 5736 5743 5748 5749 5757 5737 5745 5737 5740 5750 5757 5769 5771 5775 5786 5789 5790 5790 5782
5682 5686 5682 5682 5684 5688 5666 5656 5662 5668 5667 5667 5666 5667 5670 5673 5680 5685 5684 5685 5691 5697 5703 5713 5712 5715 5729 5725 5731 5729 5735 5749 5761 5762 5755 5752 5759 5794 5782 5784 5788 5791 5795 5792 5786
5686 5680 5685 5687 5679 5676 5669 5663 5649 5669 5674 5670 5673 5671 5666 5669 5673 5676 5678 5685 5687 5696 5691 5706 5713 5712 5724 5744 5752 5752 5742 5749 5735 5735 5753 5763 5751 5775 5782 5786 5788 5789 5791 5795 5789
5681 5680 5688 5686 5670 5669 5666 5666 5668 5670 5668 5667 5666 5669 5671 5665 5660 5671 5672 5679 5684 5688 5690 5698 5703 5694 5711 5721 5731 5730 5744 5753 5761 5766 5755 5748 5768 5770 5774 5772 5774 5770 5778 5780 5781
5677 5673 5677 5681 5678 5672 5663 5661 5659 5664 5662 5664 5662 5668 5664 5660 5666 5660 5668 5674 5679 5684 5671 5682 5702 5700 5706 5716 5738 5722 5731 5739 5749 5743 5753 5767 5772 5760 5760 5762 5761 5763 5766 5763 5765
5676 5674 5671 5670 5669 5669 5669 5661 5655 5653 5660 5662 5656 5658 5657 5652 5656 5654 5663 5672 5676 5669 5678 5686 5681 5696 5708 5708 5716 5720 5727 5733 5735 5748 5750 5774 5771 5779 5768 5758 5756 5756 5751 5752 5751
5668 5671 5669 5667 5664 5667 5651 5657 5653 5652 5650 5652 5651 5652 5655 5650 5652 5646 5657 5661 5665 5674 5675 5684 5677 5684 5689 5702 5707 5707 5718 5730 5740 5751 5748 5760 5761 5771 5767 5754 5742 5741 5741 5740 5740
5662 5664 5665 5648 5665 5666 5661 5658 5652 5651 5649 5649 5648 5651 5651 5647 5652 5655 5658 5660 5661 5662 5668 5671 5677 5673 5682 5693 5695 5688 5701 5715 5724 5730 5742 5743 5750 5757 5739 5734 5733 5732 5735 5730 5733